Wetbulb
58.49 58.42 58.66 58.81 58.77 59.08 59.60 59.76 59.66 59.57 59.66 59.85 60.14 60.36 60.44 60.49 59.95 51.79 46.90 53.83 54.91 63.82 58.10 50.94 49.61 47.92 47.11 45.94 45.59 42.10 36.32 32.51 35.30 35.56 39.02 40.24 39.71 41.26 42.69 41.59 41.65 43.95 42.32 42.20 41.84
57.92 57.90 58.06 58.24 58.18 58.38 58.70 59.08 59.06 59.18 59.41 59.52 59.59 59.85 60.03 60.11 51.59 48.14 56.68 63.00 64.60 62.61 50.39 48.75 46.59 46.58 43.72 43.74 44.23 41.29 33.90 35.85 38.58 38.27 39.50 40.12 40.30 41.12 42.07 40.94 39.81 41.85 43.09 41.68 41.34
57.65 57.61 57.66 57.78 57.95 58.06 58.11 58.27 58.31 58.57 58.91 59.09 59.31 59.44 59.55 57.88 44.54 44.18 62.09 63.37 65.44 60.39 50.74 48.19 47.19 46.24 41.42 42.66 42.70 40.24 38.12 39.09 41.15 42.19 41.97 41.25 39.55 41.29 38.80 40.20 41.02 42.71 43.88 41.75 40.07
57.39 57.32 57.34 57.36 57.56 57.96 58.24 58.25 58.26 58.26 58.35 58.44 58.87 59.24 59.51 51.43 37.76 46.00 63.91 65.36 64.63 51.71 49.46 47.29 45.30 42.50 40.51 40.54 43.21 39.62 42.51 41.75 42.89 43.08 41.51 40.21 41.24 40.00 41.08 46.03 44.63 44.28 43.41 41.32 40.46
57.64 57.49 57.29 57.24 57.38 57.80 58.16 58.32 58.39 58.27 58.13 58.24 58.42 59.11 51.87 41.15 44.21 54.30 63.02 62.39 52.80 49.78 47.76 45.69 43.73 42.58 39.55 39.78 40.52 39.34 40.72 43.18 43.25 42.93 42.69 42.08 42.23 40.83 41.27 45.51 44.18 43.39 42.63 42.20 41.28
57.67 57.43 57.46 57.57 57.51 57.83 58.15 58.35 58.44 58.48 58.30 58.24 58.25 58.60 46.27 38.06 47.40 55.41 54.76 51.56 49.98 47.97 46.01 45.60 44.29 44.70 41.05 40.69 40.87 39.73 40.33 41.02 41.77 41.98 42.38 41.89 43.65 39.77 43.17 43.39 43.11 42.05 42.00 41.29 41.26
57.87 57.50 57.33 57.51 57.91 57.83 58.09 58.21 58.40 58.55 58.43 58.49 58.06 56.00 44.71 43.24 48.72 51.80 51.16 48.65 48.36 47.43 44.68 45.07 45.35 43.64 41.86 38.76 40.94 39.80 38.36 38.47 38.72 39.98 40.06 40.32 39.06 37.47 44.92 40.85 42.31 41.53 41.07 41.89 41.21
57.86 57.35 57.21 57.38 57.75 57.99 58.31 58.62 58.67 58.69 58.40 58.39 58.01 50.95 40.21 47.94 47.86 48.13 47.48 45.76 46.30 46.07 45.81 45.86 46.03 43.77 40.99 40.80 38.82 34.68 34.19 32.11 36.35 38.12 38.26 39.85 34.32 43.00 42.00 39.05 41.00 40.67 40.95 40.27 41.49
57.61 57.12 57.27 57.53 57.60 57.68 58.07 58.32 57.81 58.62 57.95 58.31 51.04 44.34 40.49 51.07 45.71 47.20 46.69 45.66 46.13 45.27 44.94 48.60 44.60 40.43 39.33 34.45 32.52 30.07 28.89 29.99 33.77 38.91 37.68 37.18 33.81 40.97 40.39 38.86 39.74 39.80 40.91 42.14 42.76
57.55 57.25 57.41 57.66 57.69 57.81 58.03 57.22 56.26 55.57 56.29 56.19 52.13 40.78 42.87 42.17 46.27 45.54 44.70 46.75 44.07 43.63 42.68 41.43 38.48 35.47 33.58 32.71 28.60 29.24 27.03 29.81 30.34 35.56 34.50 33.76 34.90 38.93 42.74 38.08 41.23 42.57 43.02 42.05 43.93
57.78 57.64 57.77 57.76 57.99 58.37 54.21 45.79 42.15 40.33 44.42 41.95 42.41 39.84 41.34 45.16 46.55 44.06 46.35 45.51 43.37 40.19 36.06 36.96 33.32 32.18 37.19 35.74 34.22 30.71 30.06 29.28 33.71 36.94 33.09 35.67 36.67 38.55 41.48 41.63 41.77 42.69 42.84 42.09 43.47
58.20 57.99 57.91 57.79 57.99 57.50 47.46 43.69 42.29 42.56 38.29 43.01 43.08 44.16 45.66 45.83 41.79 43.04 46.01 42.28 39.65 35.66 35.38 33.20 30.31 37.37 36.07 34.53 34.53 33.49 31.88 31.30 35.89 38.02 33.00 33.92 35.07 38.34 39.72 40.56 42.59 42.92 43.32 44.10 44.56
58.41 57.99 57.69 57.61 57.28 51.89 45.28 43.83 47.18 45.44 36.78 40.32 41.67 40.75 41.94 45.43 41.51 42.24 44.12 39.86 37.07 34.47 34.21 34.19 35.16 37.84 35.94 33.13 33.18 31.63 29.75 32.71 32.19 33.59 32.60 31.10 32.53 33.79 37.26 39.10 41.46 42.60 43.34 43.14 43.25
58.41 58.03 57.92 57.48 53.24 48.52 47.14 46.47 47.99 43.29 34.75 37.24 37.50 39.91 41.26 41.53 37.15 41.80 41.98 40.63 35.91 35.54 34.29 33.44 37.03 36.42 32.69 32.27 34.51 32.62 34.98 34.88 32.86 28.87 26.30 31.44 26.14 34.01 39.58 39.83 37.35 40.03 40.17 38.99 39.98
57.38 57.69 57.82 56.74 51.17 51.09 48.46 47.84 48.06 40.49 30.32 39.25 36.69 43.19 41.76 37.12 36.72 37.69 39.98 38.18 33.89 33.98 33.84 33.58 33.11 32.05 32.40 34.56 34.50 33.31 34.05 32.55 29.44 27.43 25.80 25.86 24.75 28.54 32.61 33.38 36.57 38.12 39.66 39.61 39.13
55.36 56.05 57.01 53.88 51.76 51.55 49.80 48.78 45.44 38.35 31.13 37.49 36.74 35.76 35.97 36.47 36.02 36.96 37.30 38.91 36.60 33.69 32.95 33.45 34.43 35.55 35.57 35.22 35.66 35.02 31.63 30.37 27.32 26.55 22.31 27.97 28.32 27.90 30.61 34.25 35.35 38.00 39.41 39.14 39.80
53.68 54.36 55.52 55.35 51.97 51.52 50.59 48.73 39.45 33.94 40.36 36.03 33.04 34.81 33.35 32.59 34.31 34.42 33.47 32.46 31.24 27.28 26.54 28.70 31.85 33.68 35.22 31.82 32.36 31.83 29.60 23.23 20.77 19.56 23.37 27.40 25.27 33.42 34.83 37.21 38.05 39.63 39.70 38.74 37.19
51.84 52.73 54.84 55.22 53.05 54.16 52.24 45.46 32.49 39.20 39.52 41.55 36.68 34.68 33.61 35.44 35.19 33.29 29.68 29.50 31.55 29.42 26.94 26.90 30.34 32.53 34.25 34.55 31.89 29.94 30.73 24.82 18.56 17.71 27.61 24.94 23.98 32.28 36.82 38.44 37.16 35.62 38.04 36.31 36.67
50.96 50.20 51.71 54.64 53.03 53.72 48.37 37.10 36.85 38.66 42.44 41.66 42.15 38.88 36.65 35.52 36.59 34.34 31.58 29.68 32.75 34.39 32.49 27.45 27.77 31.24 33.00 33.09 34.74 27.95 27.97 32.10 27.62 19.04 18.39 29.51 33.55 36.01 34.96 34.01 33.84 35.79 35.40 34.97 36.38
44.70 46.69 47.39 54.10 53.15 51.05 43.80 38.57 39.75 43.65 43.64 43.44 38.08 40.58 35.10 34.30 33.99 33.56 33.25 33.30 32.76 34.46 37.02 34.15 29.94 32.81 30.90 32.87 31.77 31.79 32.69 27.00 26.84 21.36 17.36 26.66 25.97 30.83 35.27 38.53 38.58 35.30 33.98 35.61 36.26
43.64 41.33 46.14 53.15 52.91 46.02 36.70 36.94 41.24 44.36 44.50 41.67 40.36 39.32 39.55 38.63 39.41 38.18 39.14 39.02 34.83 33.66 36.16 37.97 33.82 31.89 33.44 30.12 30.84 28.36 28.38 29.19 29.57 28.68 24.65 23.20 27.96 39.03 35.61 32.97 33.68 33.27 36.91 37.48 39.59
42.05 33.54 48.02 53.51 42.55 42.04 36.81 38.77 41.67 41.54 43.34 42.02 42.48 41.20 39.59 39.46 37.89 37.58 37.26 40.66 42.23 39.09 34.38 38.49 36.78 30.84 32.54 36.20 34.70 33.49 33.17 32.71 28.20 25.41 26.73 28.87 29.16 41.27 40.26 40.16 37.68 37.02 35.07 34.57 34.46
36.34 37.41 48.92 49.98 34.79 36.01 39.24 38.66 40.49 39.72 40.23 40.02 39.09 40.15 40.77 37.63 34.56 37.48 38.17 41.13 41.94 39.78 37.95 37.56 34.01 29.18 27.81 29.82 31.50 30.85 32.22 34.00 34.11 33.07 28.27 24.99 27.45 40.63 41.08 39.73 29.89 30.49 31.37 32.14 32.10
34.86 29.55 36.91 43.46 41.06 37.32 35.25 35.64 35.54 41.22 40.67 41.42 39.92 40.33 38.35 36.64 38.53 35.90 36.59 39.39 38.22 38.80 41.26 41.18 35.47 32.47 27.71 30.53 33.00 29.47 32.23 33.66 32.10 26.48 28.27 28.22 30.83 35.59 32.34 28.50 26.68 27.81 28.11 29.10 29.58
33.13 29.25 34.40 31.65 33.92 35.80 36.95 36.02 33.43 32.81 38.62 39.25 36.96 36.90 36.14 33.74 34.70 33.56 35.18 33.42 35.27 36.28 35.31 35.53 29.77 32.53 32.20 30.82 30.61 29.80 29.47 29.17 27.34 28.82 25.08 27.29 29.65 32.71 25.22 24.39 25.71 28.60 27.76 27.71 28.52
28.50 29.66 31.65 27.98 30.34 28.94 31.19 30.85 31.88 34.01 34.51 33.66 32.92 34.43 35.17 32.63 32.43 30.30 26.44 28.76 27.26 29.53 28.54 30.99 23.11 26.36 23.48 26.94 26.85 24.54 26.29 26.72 26.44 26.35 28.00 29.58 28.04 25.60 25.68 26.32 25.71 27.17 26.94 25.88 27.17
30.71 32.38 33.11 26.83 27.10 25.51 24.78 27.94 27.54 28.58 30.24 30.25 28.44 28.11 27.60 30.15 29.72 30.26 30.47 29.57 28.79 26.39 24.32 24.24 20.66 14.87 15.70 22.82 19.12 13.89 19.79 23.27 23.86 25.52 22.88 20.50 20.75 23.72 21.92 23.23 24.07 25.47 27.06 26.68 25.44
MSLP
1019.91 1019.71 1019.45 1019.25 1019.04 1018.83 1018.69 1018.45 1018.20 1017.98 1017.77 1017.54 1017.26 1017.00 1016.76 1016.37 1015.94 1016.01 1015.41 1013.62 1013.73 1014.08 1014.45 1015.13 1015.37 1015.64 1015.95 1016.59 1017.12 1017.80 1018.77 1018.98 1018.03 1017.22 1015.59 1014.74 1014.60 1014.02 1013.90 1014.19 1014.34 1014.22 1014.17 1014.13 1014.94
1020.01 1019.83 1019.58 1019.36 1019.13 1018.91 1018.71 1018.49 1018.27 1018.05 1017.82 1017.58 1017.33 1017.02 1016.75 1016.47 1016.03 1015.19 1013.32 1013.31 1013.54 1013.92 1014.54 1015.02 1015.55 1015.80 1016.40 1016.78 1017.22 1017.71 1018.60 1017.84 1016.60 1015.97 1015.19 1014.64 1014.50 1014.09 1014.10 1014.05 1013.99 1013.87 1013.71 1014.32 1015.12
1020.10 1019.91 1019.69 1019.40 1019.15 1018.94 1018.67 1018.49 1018.33 1018.07 1017.79 1017.59 1017.30 1016.95 1016.59 1016.46 1015.86 1013.75 1012.90 1013.12 1013.48 1013.81 1014.21 1014.80 1015.37 1015.79 1016.49 1016.80 1017.09 1017.48 1017.46 1016.60 1015.74 1015.25 1015.01 1014.67 1014.26 1013.86 1014.03 1013.49 1013.27 1013.40 1013.23 1014.03 1014.89
1020.06 1019.91 1019.70 1019.48 1019.18 1018.83 1018.59 1018.34 1018.10 1017.90 1017.68 1017.43 1017.18 1016.83 1016.39 1016.29 1015.39 1013.20 1012.98 1013.10 1013.48 1013.91 1014.38 1014.99 1015.65 1016.11 1016.49 1016.75 1016.63 1017.25 1016.31 1016.00 1015.29 1014.93 1014.86 1014.66 1014.17 1013.94 1013.92 1011.88 1011.88 1012.12 1012.57 1013.22 1014.16
1019.98 1019.83 1019.60 1019.40 1019.21 1018.87 1018.53 1018.22 1017.89 1017.61 1017.41 1017.21 1016.99 1016.68 1016.22 1016.04 1014.40 1013.13 1013.23 1013.48 1013.83 1014.07 1014.53 1015.03 1015.53 1016.03 1016.35 1016.42 1016.56 1016.68 1015.99 1015.62 1015.00 1014.95 1014.77 1014.53 1013.79 1013.79 1013.13 1011.39 1011.45 1012.02 1012.39 1012.62 1013.16
1019.88 1019.69 1019.51 1019.27 1018.97 1018.67 1018.31 1017.98 1017.64 1017.35 1017.14 1016.99 1016.85 1016.80 1016.57 1015.53 1012.97 1013.14 1013.39 1013.74 1013.87 1014.25 1014.62 1014.85 1015.05 1015.25 1015.74 1015.84 1016.11 1015.66 1015.66 1015.47 1015.06 1014.75 1014.57 1014.42 1012.93 1013.44 1011.70 1010.74 1011.04 1011.50 1011.53 1011.66 1012.07
1019.78 1019.62 1019.40 1019.11 1018.83 1018.44 1017.99 1017.57 1017.12 1016.80 1016.62 1016.60 1016.67 1016.77 1016.49 1013.71 1012.89 1013.27 1013.50 1013.71 1013.85 1014.08 1014.45 1014.55 1014.72 1015.02 1015.33 1015.52 1015.41 1015.59 1015.91 1015.28 1014.60 1014.12 1014.34 1014.14 1013.73 1012.61 1010.21 1010.95 1010.81 1010.78 1010.86 1010.83 1010.78
1019.69 1019.52 1019.36 1019.12 1018.77 1018.32 1017.81 1017.28 1016.67 1016.12 1015.82 1015.98 1016.42 1016.55 1015.35 1013.09 1013.16 1013.47 1013.53 1013.80 1013.87 1014.02 1014.20 1014.36 1014.53 1015.05 1015.41 1015.48 1015.67 1016.04 1016.29 1015.73 1013.90 1013.97 1013.86 1014.03 1013.04 1010.03 1010.20 1010.68 1010.64 1010.40 1010.28 1010.15 1009.71
1019.53 1019.41 1019.23 1019.00 1018.65 1018.13 1017.48 1016.92 1016.41 1015.87 1015.72 1015.86 1016.38 1016.22 1014.67 1013.14 1013.27 1013.16 1013.24 1013.57 1013.89 1014.14 1014.25 1014.39 1014.83 1015.51 1015.90 1016.40 1016.67 1016.65 1016.36 1015.87 1014.66 1013.29 1013.82 1013.89 1012.26 1010.37 1010.02 1010.42 1010.34 1009.97 1009.64 1009.36 1008.83
1019.31 1019.18 1019.07 1018.86 1018.45 1017.89 1017.15 1016.45 1016.35 1016.10 1016.13 1016.15 1015.99 1016.37 1013.80 1013.03 1013.01 1013.30 1013.42 1013.57 1014.06 1014.41 1014.77 1015.20 1015.74 1016.17 1016.77 1016.90 1016.78 1016.24 1016.56 1015.80 1015.19 1013.54 1013.67 1013.41 1012.10 1011.05 1009.65 1010.13 1009.67 1009.02 1008.66 1008.18 1007.65
1019.13 1019.01 1018.93 1018.77 1018.48 1017.91 1017.27 1016.79 1016.95 1016.90 1016.43 1015.64 1015.52 1014.81 1013.59 1013.16 1013.02 1013.37 1013.46 1013.82 1014.30 1014.86 1015.33 1015.68 1016.49 1016.07 1014.98 1015.55 1015.62 1016.06 1016.10 1015.66 1014.40 1013.64 1013.70 1012.69 1011.60 1011.01 1009.94 1009.09 1008.17 1007.74 1007.31 1006.57 1005.93
1018.88 1018.89 1018.80 1018.61 1018.34 1017.93 1017.91 1018.46 1018.94 1019.24 1017.55 1015.26 1014.63 1014.34 1013.31 1013.19 1013.39 1013.45 1013.53 1013.99 1014.60 1015.33 1015.94 1016.60 1016.11 1015.36 1015.43 1015.80 1016.28 1016.22 1015.95 1015.24 1014.01 1013.42 1013.52 1012.46 1010.12 1010.07 1009.34 1008.06 1006.45 1005.95 1005.82 1005.22 1005.13
1018.68 1018.66 1018.67 1018.54 1018.28 1018.12 1018.70 1019.11 1019.07 1019.13 1018.51 1015.25 1014.12 1013.57 1012.98 1013.00 1013.16 1013.26 1013.64 1014.00 1014.48 1015.31 1015.60 1015.60 1015.11 1015.00 1015.69 1015.82 1016.07 1015.68 1016.15 1014.89 1014.54 1014.06 1013.48 1012.19 1008.93 1008.21 1007.16 1007.00 1005.99 1005.06 1004.81 1005.19 1005.31
1018.53 1018.56 1018.53 1018.37 1018.76 1018.80 1018.68 1018.55 1018.85 1019.15 1018.19 1015.05 1013.57 1012.77 1012.85 1012.97 1013.32 1013.39 1013.39 1013.65 1014.35 1014.55 1015.29 1015.14 1014.47 1014.72 1015.39 1015.74 1015.03 1014.87 1014.46 1014.43 1014.81 1015.28 1014.66 1013.31 1009.59 1008.06 1007.26 1006.36 1005.81 1004.58 1004.56 1004.56 1004.53
1018.39 1018.38 1018.40 1018.36 1018.82 1018.99 1018.81 1018.74 1018.93 1019.04 1017.09 1014.14 1013.34 1012.77 1012.76 1013.23 1013.87 1013.80 1013.73 1013.69 1014.00 1014.57 1015.05 1014.17 1014.31 1014.47 1014.75 1014.22 1014.55 1013.87 1014.10 1014.60 1014.83 1015.24 1014.96 1013.80 1012.90 1006.66 1005.84 1005.89 1005.07 1004.66 1004.14 1004.31 1004.89
1018.58 1018.10 1018.52 1018.55 1018.81 1018.94 1018.85 1018.67 1018.80 1018.88 1015.29 1013.49 1013.17 1013.04 1013.06 1013.29 1013.72 1014.00 1014.03 1014.16 1014.39 1014.43 1014.61 1014.24 1013.92 1013.77 1013.09 1013.05 1013.43 1013.40 1014.26 1015.13 1015.81 1015.75 1014.22 1012.59 1011.73 1007.38 1005.56 1005.13 1005.04 1004.57 1004.31 1004.81 1004.79
1018.85 1018.26 1018.56 1018.34 1018.54 1018.73 1019.14 1018.79 1018.75 1016.42 1014.11 1013.48 1013.32 1013.39 1013.55 1013.60 1013.73 1013.95 1014.28 1014.39 1014.80 1014.82 1014.40 1013.85 1013.31 1012.76 1012.77 1013.19 1013.79 1014.11 1014.47 1016.00 1016.04 1016.14 1013.05 1011.08 1010.36 1006.91 1004.82 1004.36 1004.23 1004.40 1004.35 1004.90 1005.60
1018.71 1018.69 1018.10 1018.24 1018.65 1018.82 1019.18 1018.67 1017.90 1015.47 1014.62 1013.81 1013.61 1013.59 1013.76 1013.54 1013.74 1014.23 1014.45 1014.61 1014.25 1014.63 1014.60 1013.94 1012.69 1012.23 1012.37 1012.45 1012.79 1013.88 1014.41 1015.15 1014.77 1014.42 1012.42 1011.36 1007.87 1005.11 1004.06 1003.61 1003.82 1004.44 1004.63 1005.23 1005.62
1018.60 1018.50 1018.37 1017.83 1018.34 1018.81 1019.01 1017.98 1015.92 1014.96 1013.96 1013.80 1013.82 1014.07 1014.00 1013.71 1013.86 1014.62 1014.84 1014.38 1013.78 1013.71 1013.87 1013.42 1012.55 1011.85 1011.81 1011.93 1012.32 1013.59 1013.89 1013.40 1013.56 1013.29 1013.25 1009.70 1005.91 1004.63 1003.74 1003.95 1004.32 1004.65 1005.14 1006.08 1005.89
1019.16 1018.58 1017.75 1016.85 1017.88 1018.52 1018.45 1016.18 1015.51 1014.54 1013.84 1013.80 1013.73 1014.19 1013.60 1013.53 1014.00 1014.13 1014.01 1013.47 1013.59 1013.25 1012.92 1013.11 1012.85 1011.92 1011.62 1012.12 1012.34 1012.62 1013.07 1013.46 1013.82 1013.52 1012.29 1009.25 1007.59 1004.38 1004.84 1005.19 1005.34 1005.65 1006.50 1006.80 1006.13
1019.37 1018.59 1017.01 1016.73 1017.59 1017.88 1016.96 1015.48 1014.96 1014.35 1014.74 1014.60 1013.60 1013.48 1013.30 1013.48 1013.56 1013.45 1013.62 1013.11 1013.23 1013.44 1013.47 1013.31 1013.94 1012.48 1012.19 1012.05 1012.12 1012.74 1012.81 1013.34 1013.44 1012.50 1011.02 1009.52 1006.51 1004.50 1004.87 1005.53 1006.33 1007.17 1007.24 1007.15 1007.22
1018.98 1018.96 1017.32 1017.01 1017.58 1016.76 1015.77 1015.26 1015.21 1014.61 1014.59 1014.32 1014.19 1013.69 1013.78 1013.84 1013.47 1013.68 1013.37 1013.23 1013.15 1013.37 1013.69 1014.21 1013.54 1013.47 1012.01 1011.52 1011.16 1011.56 1011.77 1012.31 1012.47 1011.19 1010.09 1008.55 1006.05 1003.73 1005.29 1006.04 1007.45 1008.64 1009.43 1009.31 1009.83
1019.64 1018.46 1017.38 1017.21 1017.07 1016.63 1015.62 1015.32 1015.33 1014.99 1014.67 1014.54 1014.34 1013.95 1014.15 1014.21 1014.05 1013.17 1013.16 1012.73 1013.43 1013.78 1013.71 1014.03 1013.90 1013.39 1012.07 1012.21 1012.17 1011.90 1011.50 1011.80 1011.80 1011.17 1010.02 1009.11 1007.24 1007.03 1006.07 1008.00 1010.69 1011.23 1011.15 1010.83 1010.98
1020.37 1019.32 1018.54 1017.69 1017.02 1017.16 1016.62 1015.71 1015.28 1014.78 1014.61 1014.59 1014.28 1014.63 1014.76 1014.61 1014.43 1013.84 1014.11 1014.22 1014.41 1015.03 1014.71 1014.82 1013.94 1014.17 1013.21 1013.04 1012.94 1012.99 1012.73 1012.87 1013.10 1012.13 1010.34 1009.73 1009.54 1010.08 1011.19 1011.55 1013.06 1013.21 1013.42 1012.96 1012.40
1020.61 1020.02 1019.40 1018.61 1017.77 1017.44 1017.40 1016.78 1015.83 1015.71 1015.29 1015.18 1015.27 1015.13 1015.56 1015.48 1015.47 1015.08 1015.20 1015.56 1015.34 1015.74 1015.83 1015.80 1014.99 1015.05 1014.61 1014.79 1014.80 1014.20 1014.01 1013.64 1013.01 1012.60 1012.21 1011.41 1011.24 1011.57 1013.55 1014.21 1014.02 1014.09 1014.30 1014.11 1013.27
1021.03 1020.87 1020.01 1019.45 1018.89 1018.57 1018.10 1017.21 1016.80 1016.11 1016.47 1015.90 1016.58 1015.96 1016.53 1016.77 1017.20 1017.33 1017.61 1017.38 1017.30 1017.53 1017.62 1017.22 1016.67 1016.48 1015.90 1015.26 1015.41 1014.61 1013.66 1012.98 1012.82 1012.23 1011.95 1012.61 1012.83 1014.49 1015.29 1015.54 1015.48 1015.01 1014.36 1014.00 1013.81
1021.61 1021.02 1020.59 1019.98 1019.59 1019.18 1018.78 1018.42 1018.20 1017.79 1017.79 1017.96 1018.32 1018.01 1017.75 1018.41 1018.64 1019.10 1019.63 1019.52 1019.36 1018.69 1018.92 1018.93 1018.50 1018.48 1017.05 1016.36 1016.47 1014.70 1013.17 1013.05 1012.54 1012.45 1013.41 1013.87 1014.73 1015.75 1015.65 1015.55 1015.59 1015.00 1014.81 1014.22 1013.74
Wind_Speed
12 13 14 14 14 14 14 14 14 13 13 13 13 13 13 12 7 1 6 10 5 14 8 7 3 3 3 3 3 3 4 2 6 5 6 1 1 2 1 2 3 7 5 2 4
12 12 13 15 14 13 13 14 15 15 14 14 14 13 13 12 1 6 8 3 8 13 6 7 5 5 2 2 1 5 4 9 7 5 5 3 4 3 2 4 5 6 6 3 5
10 11 12 13 14 14 13 13 14 14 14 14 14 14 14 7 5 6 4 7 13 8 5 3 5 5 2 2 4 5 7 6 6 8 4 5 4 4 3 9 10 10 9 7 7
8 10 11 12 13 14 14 14 14 14 14 14 14 15 15 1 6 1 2 7 11 8 7 6 4 4 4 5 5 3 9 6 4 3 2 4 5 5 8 21 7 14 7 5 10
8 9 10 12 13 14 14 15 15 15 14 13 12 12 4 2 11 3 7 9 5 5 7 6 5 5 4 4 4 5 5 6 7 6 8 5 14 9 10 21 9 8 8 11 10
9 9 10 11 13 15 16 17 17 15 14 12 9 9 1 6 2 7 9 6 6 5 6 7 7 8 4 5 7 4 4 6 7 6 7 7 17 5 13 11 11 8 13 12 12
9 10 11 11 13 16 17 19 19 17 15 12 6 0 1 17 2 6 7 5 5 5 5 4 5 5 4 3 2 2 7 8 8 7 9 7 13 12 21 3 13 12 11 11 13
10 10 11 12 13 15 18 19 19 19 14 8 6 3 9 1 4 5 4 3 3 2 2 4 5 4 3 1 5 3 1 5 2 7 3 8 10 26 11 6 15 12 12 10 13
9 10 11 12 13 16 19 20 13 7 4 11 4 4 10 4 2 3 5 6 6 3 2 3 4 3 3 4 5 2 6 8 12 13 6 8 10 17 4 6 11 11 11 11 13
9 9 11 12 14 17 22 15 5 1 4 2 1 2 5 4 1 3 1 6 4 5 4 3 5 3 1 4 9 9 6 7 8 5 5 6 16 12 20 5 16 19 15 15 19
9 9 10 11 14 17 11 4 6 4 4 7 5 5 5 1 1 2 2 4 4 4 6 2 4 10 23 14 2 3 6 8 9 8 3 15 18 18 19 20 22 21 20 20 21
9 9 10 10 11 15 3 5 1 2 10 8 10 8 6 2 2 3 4 6 5 6 5 3 8 15 3 3 6 9 13 14 14 16 5 14 23 16 17 20 28 24 21 22 19
8 8 8 10 11 4 2 1 1 2 4 9 6 5 5 8 8 6 9 4 5 7 9 12 5 6 5 4 6 8 7 16 16 7 6 10 15 13 10 14 22 23 20 15 16
7 7 7 9 3 1 1 3 3 1 4 9 4 3 1 2 3 2 2 5 4 11 7 7 6 7 4 7 12 19 12 14 9 4 6 4 14 16 22 20 10 17 10 10 11
6 5 5 1 3 2 1 3 3 2 10 3 2 2 2 5 1 3 2 2 4 5 5 9 5 4 6 11 8 11 3 6 3 4 5 4 5 2 3 5 11 10 13 10 7
7 8 1 2 2 1 2 3 1 1 12 3 1 1 3 0 0 1 2 3 1 3 3 7 2 7 10 7 10 4 3 3 4 2 8 14 12 3 5 6 4 5 7 5 9
11 8 2 1 2 3 1 3 2 8 4 2 0 1 2 2 2 4 4 5 5 1 4 1 6 4 4 2 1 2 6 5 5 1 11 2 6 12 3 8 7 10 9 8 5
14 9 2 1 5 3 1 3 10 1 4 5 3 2 4 6 3 1 2 4 5 1 1 3 14 9 6 9 8 7 9 8 9 5 14 1 11 7 9 6 6 1 6 4 7
12 2 2 4 7 3 2 7 7 5 6 3 6 10 7 4 5 5 6 6 8 12 9 4 8 2 5 3 6 4 6 3 2 3 3 11 20 9 6 1 2 3 4 6 9
2 2 4 8 10 3 5 14 8 8 3 4 8 8 9 4 3 4 5 3 5 7 2 1 11 5 1 4 1 6 3 1 2 2 7 13 8 16 11 18 14 9 7 11 9
1 2 2 7 5 5 11 8 11 9 7 6 5 9 7 5 5 3 6 1 3 1 4 5 1 6 3 6 9 2 3 4 3 6 10 11 15 12 10 2 5 3 7 9 14
1 2 2 6 7 4 12 6 4 16 10 7 7 16 17 16 16 15 17 7 5 4 4 8 4 8 18 11 9 8 10 11 13 11 11 19 23 26 19 15 9 20 19 16 17
2 2 2 0 6 9 9 8 5 12 17 4 7 7 11 18 16 14 10 3 5 6 4 4 5 9 6 2 4 5 4 9 12 14 20 17 12 15 22 16 18 17 16 15 15
1 1 3 2 4 4 8 15 17 5 9 8 12 13 15 17 15 9 7 5 6 4 5 3 6 17 16 19 13 7 9 7 5 6 9 11 16 17 17 21 14 14 14 13 13
1 3 1 3 7 8 8 10 13 10 4 5 2 5 8 7 7 7 4 3 1 7 3 2 11 17 15 11 16 14 13 19 22 21 21 24 24 12 10 13 16 11 13 15 15
2 2 2 3 3 1 4 7 17 18 7 14 13 15 8 8 3 6 3 1 0 4 2 2 4 7 19 22 13 18 18 18 20 24 22 22 18 6 4 8 12 9 12 14 14
2 2 1 3 1 3 2 4 3 4 6 7 8 7 4 1 1 3 6 6 5 4 3 3 2 2 15 18 11 14 15 17 14 11 2 7 4 4 7 10 13 11 13 15 15
Wind_Direction
21 18 15 10 6 4 0 358 357 356 354 350 347 344 342 340 316 166 233 217 174 153 101 123 93 102 74 98 100 134 62 251 253 182 251 187 287 227 138 287 221 209 217 231 112
15 12 12 9 5 359 355 352 350 349 348 346 342 339 335 333 282 241 252 213 137 150 108 147 152 124 89 140 114 109 142 225 214 208 243 287 206 266 297 246 252 278 249 132 148
0 359 359 1 1 359 355 350 345 343 342 341 339 334 330 322 334 249 347 181 162 160 125 97 101 115 171 144 195 176 207 214 244 229 267 267 272 218 175 274 212 223 243 184 180
341 343 345 348 349 350 348 344 340 337 334 335 335 332 323 268 296 320 85 147 147 114 107 113 102 137 184 207 178 217 242 217 257 209 270 246 301 249 182 255 199 225 238 168 197
321 325 328 334 334 335 335 334 330 325 324 327 332 336 348 8 249 133 101 111 101 103 151 144 146 144 203 204 170 217 237 233 240 259 255 288 252 237 247 261 246 245 237 232 220
310 315 317 320 324 326 325 324 320 314 312 310 320 326 118 249 220 144 130 132 143 139 163 143 190 198 213 218 187 210 254 270 278 244 238 204 268 146 252 265 271 220 241 237 224
303 309 312 316 318 319 316 315 311 305 297 287 283 241 187 238 98 141 142 176 168 162 161 198 160 153 158 267 265 300 310 309 221 236 232 162 295 224 251 214 270 265 252 255 239
304 308 311 314 314 313 312 312 310 305 293 254 199 150 241 352 117 126 155 96 111 152 164 159 160 173 193 294 4 294 174 309 252 148 265 156 250 274 249 232 269 268 279 262 259
302 307 312 314 316 315 312 313 314 346 56 134 116 143 262 140 220 204 158 154 120 94 74 101 121 171 64 92 6 334 242 228 305 204 132 184 248 265 265 192 268 278 272 279 282
299 306 314 319 322 320 320 319 278 348 59 234 74 32 285 277 171 103 29 130 125 121 78 73 59 119 37 118 231 225 226 252 248 295 176 224 253 273 286 238 252 268 270 262 264
292 303 314 324 327 326 342 1 8 343 23 199 206 249 273 262 127 73 139 91 90 88 171 187 136 198 222 203 235 181 232 247 256 261 264 260 264 264 269 285 270 262 266 263 257
286 301 312 323 328 329 17 57 91 228 305 252 246 258 238 180 294 189 136 146 152 193 110 49 227 231 40 147 234 250 261 266 274 265 219 268 273 267 256 251 260 268 269 266 278
284 294 305 319 329 34 50 23 139 141 257 286 221 205 237 157 218 219 151 142 164 158 199 213 207 207 204 150 238 224 228 258 262 310 253 299 276 236 269 256 262 268 260 274 271
308 317 310 314 335 309 10 138 144 97 291 273 254 288 159 178 249 358 232 152 190 214 195 236 246 191 149 216 205 268 223 255 266 353 262 3 296 294 274 264 247 269 259 251 254
346 341 341 84 319 319 107 120 126 55 292 271 217 287 67 148 113 348 310 76 203 185 143 239 177 158 182 221 147 238 204 242 186 204 328 217 255 2 85 260 265 263 268 262 296
8 18 186 128 102 331 133 150 310 50 251 308 69 13 108 112 101 37 80 36 78 177 225 241 320 174 214 212 189 90 68 47 48 76 268 197 197 13 153 203 310 295 262 342 348
354 351 238 128 155 99 301 49 306 230 330 311 296 119 312 239 254 179 153 179 200 235 241 237 216 240 183 184 121 139 94 311 321 355 250 291 226 237 233 233 206 251 295 334 347
339 329 229 179 142 162 86 105 227 317 289 342 341 41 221 172 218 107 105 262 228 160 184 220 289 182 169 193 185 186 169 172 230 241 286 77 248 255 211 233 235 69 249 298 6
325 276 219 196 158 161 198 225 251 195 190 210 330 294 286 281 193 174 226 236 216 185 212 204 263 219 211 143 145 174 180 221 291 40 290 266 279 279 250 215 288 57 231 10 321
323 262 227 170 153 156 223 239 238 218 326 273 242 203 250 224 193 192 177 186 275 198 337 278 296 238 265 132 179 169 214 41 355 231 256 278 292 258 305 299 310 357 7 313 296
297 259 272 130 141 189 231 232 254 233 251 265 280 284 266 265 229 229 246 243 236 103 173 75 246 265 343 192 190 146 234 228 294 211 236 258 265 268 261 324 298 310 316 312 335
195 244 298 155 196 208 232 214 227 270 274 268 259 258 265 275 275 269 265 224 222 177 188 212 198 240 256 239 195 193 230 229 245 257 237 249 251 290 296 297 336 20 32 35 26
248 264 295 281 227 227 248 269 246 260 263 269 253 232 256 264 273 248 257 268 273 194 232 185 220 264 283 1 28 197 225 248 279 281 257 263 268 277 299 346 18 16 23 18 18
308 273 295 219 253 266 265 265 263 222 257 236 255 263 266 266 264 255 263 318 27 341 354 175 246 253 268 277 310 272 273 316 304 270 290 269 299 303 358 346 21 18 14 13 12
331 241 244 220 232 255 250 277 279 279 224 359 249 239 286 281 281 260 268 311 29 23 77 17 268 273 291 309 298 290 276 280 269 267 264 286 279 311 8 348 339 341 5 6 4
181 206 356 290 296 274 222 241 258 271 273 277 267 282 271 263 291 311 16 140 9 355 350 126 275 330 295 287 287 285 280 270 272 274 269 265 275 34 14 333 342 333 338 346 346
278 301 182 276 137 123 234 293 4 15 60 52 44 356 338 343 21 239 231 243 243 254 241 269 236 327 275 288 324 297 256 262 264 284 276 260 53 339 329 337 328 311 304 323 338